Change the Weather History Date:

Saturday, January 7, 2012

  Actual Average Record
Temperature  
Mean Temperature -28 °F -  
Max Temperature -14 °F -8 °F 33 °F (2005)
Min Temperature -43 °F -28 °F -62 °F (1972)
Degree Days  
Heating Degree Days 94    
Moisture  
Dew Point -28 °F    
Average Humidity 59    
Maximum Humidity 63    
Minimum Humidity 58    
Precipitation  
Precipitation 0.00 in - - ()
Sea Level Pressure  
Sea Level Pressure 29.27 in    
Wind  
Wind Speed 4 mph (SSW)    
Max Wind Speed 9 mph    
Max Gust Speed -    
Visibility 7 miles    
Events      
Averages and records for this station are not official NWS values.
T = Trace of Precipitation, MM = Missing Value Source: NWS Daily Summary

Daily Weather History Graph

Daily Weather History Graph

Search for Another Location

Airport or City:

Trip Planner

Search our weather history database for the weather conditions in past years. The results will help you decide how hot, cold, wet, or windy it might be!

Date:

Astronomy

Jan. 07, 2012 Rise Set
Actual Time 12:04 PM AKST 1:32 PM AKST
Civil Twilight 9:53 AM AKST 3:44 PM AKST
Nautical Twilight 8:28 AM AKST 5:09 PM AKST
Astronomical Twilight 7:18 AM AKST 6:19 PM AKST
Moon No Moon Rise No Moon Set
Length of Visible Light 5h 51m
Length of Day
1h 28m
Waxing Gibbous, 98% of the Moon is Illuminated
Jan 7
Waxing Gibbous
Jan 8
Full
Jan 16
Last Quarter
Jan 22
New
Jan 30
First Quarter

Hourly Weather History & Observations

Time (AKST) Temp. Windchill Dew Point Humidity Pressure Visibility Wind Dir Wind Speed Gust Speed Precip Events Conditions
12:16 AM -14.8 °F -33.5 °F -25.6 °F 58% 29.31 in 10.0 mi SW 9.2 mph - N/A   Overcast
12:36 AM -16.6 °F -34.4 °F -27.4 °F 58% 29.33 in 10.0 mi SSW 8.1 mph - N/A   Scattered Clouds
12:56 AM -16.6 °F -32.9 °F -27.4 °F 58% 29.33 in 10.0 mi SSW 6.9 mph - N/A   Clear
1:16 AM -18.4 °F -36.6 °F -29.2 °F 58% 29.33 in 10.0 mi South 8.1 mph - N/A   Clear
1:36 AM -18.4 °F -35.1 °F -29.2 °F 58% 29.33 in 10.0 mi SSW 6.9 mph - N/A   Clear
1:56 AM -20.2 °F -38.8 °F -29.2 °F 63% 29.34 in 10.0 mi SSW 8.1 mph - N/A   Clear
2:16 AM -20.2 °F -37.3 °F - N/A% 29.34 in 10.0 mi SSW 6.9 mph - N/A   Clear
2:36 AM -20.2 °F -37.3 °F - N/A% 29.34 in 10.0 mi South 6.9 mph - N/A   Clear
2:56 AM -22.0 °F -39.4 °F - N/A% 29.34 in 10.0 mi SSW 6.9 mph - N/A   Clear
3:16 AM -23.8 °F -39.8 °F - N/A% 29.34 in 10.0 mi SSW 5.8 mph - N/A   Clear
3:36 AM -22.0 °F -39.4 °F - N/A% 29.35 in 10.0 mi SSW 6.9 mph - N/A   Clear
3:56 AM -23.8 °F -37.7 °F - N/A% 29.35 in 10.0 mi SSW 4.6 mph - N/A   Clear
4:16 AM -25.6 °F - - N/A% 29.34 in 10.0 mi Calm Calm - N/A   Clear
4:36 AM -25.6 °F - - N/A% 29.34 in 10.0 mi Calm Calm - N/A   Clear
4:56 AM -25.6 °F - - N/A% 29.34 in 10.0 mi Calm Calm - N/A   Clear
5:16 AM -25.6 °F - - N/A% 29.34 in 10.0 mi Calm Calm - N/A   Clear
5:36 AM -27.4 °F - - N/A% 29.34 in 10.0 mi Calm Calm - N/A   Clear
5:56 AM -25.6 °F - - N/A% 29.33 in 10.0 mi Calm Calm - N/A   Clear
6:16 AM -29.2 °F - - N/A% 29.33 in 10.0 mi Calm Calm - N/A   Clear
6:36 AM -31.0 °F - - N/A% 29.33 in 10.0 mi Calm Calm - N/A   Partly Cloudy
6:56 AM -34.6 °F - - N/A% 29.33 in 10.0 mi Calm Calm - N/A   Partly Cloudy
7:16 AM -32.8 °F - - N/A% 29.33 in 8.0 mi Calm Calm - N/A   Clear
7:56 AM -32.8 °F - - N/A% 29.32 in 10.0 mi Calm Calm - N/A   Partly Cloudy
8:16 AM -34.6 °F - - N/A% 29.32 in 7.0 mi Calm Calm - N/A   Partly Cloudy
8:36 AM -34.6 °F - - N/A% 29.32 in 7.0 mi Calm Calm - N/A   Clear
8:56 AM -36.4 °F - - N/A% 29.31 in 8.0 mi Calm Calm - N/A   Clear
9:16 AM -36.4 °F - - N/A% 29.31 in 9.0 mi Calm Calm - N/A   Clear
9:36 AM -36.4 °F - - N/A% 29.31 in 10.0 mi Calm Calm - N/A   Clear
9:56 AM -36.4 °F - - N/A% 29.30 in 6.0 mi Calm Calm - N/A   Clear
10:16 AM - - - N/A% 29.29 in 4.0 mi Calm Calm - N/A   Clear
10:36 AM -34.6 °F - - N/A% 29.29 in 10.0 mi Calm Calm - N/A   Clear
10:56 AM - - - N/A% 29.27 in 1.0 mi Calm Calm - N/A   Clear
11:16 AM - - - N/A% 29.26 in 10.0 mi Calm Calm - N/A   Clear
11:36 AM -36.4 °F - - N/A% 29.26 in 4.0 mi Calm Calm - N/A   Clear
11:56 AM - - - N/A% 29.25 in 4.0 mi Calm Calm - N/A   Clear
12:16 PM -36.4 °F - - N/A% 29.25 in 2.0 mi Calm Calm - N/A   Clear
12:36 PM -36.4 °F - - N/A% 29.24 in 1.2 mi Calm Calm - N/A   Clear
12:56 PM - - - N/A% 29.23 in 10.0 mi Calm Calm - N/A   Clear
1:16 PM -38.2 °F - - N/A% 29.22 in 2.0 mi Calm Calm - N/A   Clear
1:36 PM - - - N/A% 29.21 in 0.8 mi Calm Calm - N/A   Unknown
1:56 PM -40.0 °F - - N/A% 29.21 in 1.0 mi Calm Calm - N/A   Clear
2:16 PM -36.4 °F - - N/A% 29.20 in 10.0 mi Calm Calm - N/A   Clear
2:36 PM -34.6 °F - - N/A% 29.19 in 10.0 mi Calm Calm - N/A   Clear
2:56 PM -40.0 °F - - N/A% 29.18 in 1.8 mi Calm Calm - N/A   Clear
3:16 PM -41.8 °F - - N/A% 29.17 in 1.0 mi Calm Calm - N/A   Clear
3:36 PM - - - N/A% 29.16 in 3.0 mi Calm Calm - N/A   Clear
3:56 PM - - - N/A% 29.16 in 4.0 mi Calm Calm - N/A   Clear
4:16 PM -34.6 °F - - N/A% 29.15 in 10.0 mi Calm Calm - N/A   Clear
4:36 PM -43.6 °F - - N/A% 29.15 in 1.5 mi Calm Calm - N/A   Clear
4:56 PM - - - N/A% 29.13 in 2.0 mi Calm Calm - N/A   Scattered Clouds
5:36 PM -36.4 °F - - N/A% 29.12 in 5.0 mi Calm Calm - N/A   Clear
5:56 PM -36.4 °F - - N/A% 29.11 in 8.0 mi Calm Calm - N/A   Scattered Clouds
6:16 PM -36.4 °F - - N/A% 29.10 in 10.0 mi Calm Calm - N/A   Scattered Clouds
6:36 PM -34.6 °F - - N/A% 29.09 in 10.0 mi Calm Calm - N/A   Clear
6:56 PM -34.6 °F - - N/A% 29.09 in 10.0 mi Calm Calm - N/A   Clear
7:16 PM -32.8 °F - - N/A% 29.08 in 10.0 mi Calm Calm - N/A   Clear
7:36 PM -36.4 °F - - N/A% 29.07 in 9.0 mi Calm Calm - N/A   Partly Cloudy
7:56 PM - - - N/A% 29.06 in 10.0 mi Calm Calm - N/A   Partly Cloudy
8:16 PM -34.6 °F - - N/A% 29.07 in 10.0 mi Calm Calm - N/A   Clear
8:36 PM -34.6 °F - - N/A% 29.06 in 10.0 mi Calm Calm - N/A   Clear
8:56 PM -31.0 °F - - N/A% 29.05 in 10.0 mi Calm Calm - N/A   Clear
9:16 PM -34.6 °F - - N/A% 29.05 in 10.0 mi Calm Calm - N/A   Clear
9:36 PM -31.0 °F - - N/A% 29.05 in 10.0 mi Calm Calm - N/A   Clear
9:56 PM -29.2 °F - - N/A% 29.04 in 10.0 mi Calm Calm - N/A   Partly Cloudy
10:16 PM -27.4 °F - - N/A% 29.04 in 10.0 mi Calm Calm - N/A   Scattered Clouds
10:36 PM -29.2 °F - - N/A% 29.04 in 10.0 mi Calm Calm - N/A   Mostly Cloudy
10:56 PM -31.0 °F - - N/A% 29.03 in 10.0 mi Calm Calm - N/A   Mostly Cloudy
11:16 PM -29.2 °F - - N/A% 29.02 in 10.0 mi Calm Calm - N/A   Overcast
11:36 PM -29.2 °F - - N/A% 29.02 in 10.0 mi Calm Calm - N/A   Scattered Clouds
11:56 PM -31.0 °F - - N/A% 29.02 in 10.0 mi Calm Calm - N/A   Mostly Cloudy